Change the Weather History Date:

Sunday, March 24, 2013

  Actual Average (LHBP) Record (LHBP)
Temperature  
Mean Temperature 26 °F -  
Max Temperature 32 °F 51 °F 69 °F (2012)
Min Temperature 21 °F 32 °F 19 °F (1998)
Degree Days  
Heating Degree Days 38    
Moisture  
Dew Point 8 °F    
Average Humidity 46    
Maximum Humidity 69    
Minimum Humidity 32    
Precipitation  
Precipitation 0.00 in - - ()
Sea Level Pressure  
Sea Level Pressure 30.13 in    
Wind  
Wind Speed 12 mph ()    
Max Wind Speed 18 mph    
Max Gust Speed 25 mph    
Visibility 5.6 miles    
Events      
Averages and records for this station are not official NWS values.
T = Trace of Precipitation, MM = Missing Value Source: Averaged Metar Reports

Daily Weather History Graph

Daily Weather History Graph

Search for Another Location

Airport or City:

Trip Planner

Search our weather history database for the weather conditions in past years. The results will help you decide how hot, cold, wet, or windy it might be!

Date:

Astronomy

Mar. 24, 2013 Rise Set
Actual Time 5:36 AM CET 5:59 PM CET
Civil Twilight 5:05 AM CET 6:29 PM CET
Nautical Twilight 4:29 AM CET 7:05 PM CET
Astronomical Twilight 3:52 AM CET 7:43 PM CET
Moon 2:59 PM CET (3/24) 3:46 AM CET (3/24)
Length of Visible Light 13h 23m
Length of Day
12h 23m
Waxing Gibbous, 90% of the Moon is Illuminated
Mar 24
Waxing Gibbous
Mar 27
Full
Apr 3
Last Quarter
Apr 10
New
Apr 18
First Quarter

Hourly Weather History & Observations

Time (CET) Temp. Windchill Dew Point Humidity Pressure Visibility Wind Dir Wind Speed Gust Speed Precip Events Conditions
12:15 AM 26.6 °F 13.6 °F 17.6 °F 69% 30.12 in 6.2 mi ENE 17.9 mph - N/A   Overcast
12:45 AM 24.8 °F 12.1 °F 15.8 °F 69% 30.12 in 6.2 mi ENE 15.7 mph - N/A   Overcast
1:15 AM 24.8 °F 13.1 °F 15.8 °F 69% 30.12 in 6.2 mi ENE 13.4 mph - N/A   Overcast
1:45 AM 24.8 °F 12.1 °F 14.0 °F 64% 30.12 in 6.2 mi ENE 15.7 mph - N/A   Overcast
2:15 AM 23.0 °F 11.9 °F 14.0 °F 68% 30.15 in 6.2 mi ENE 11.2 mph - N/A   Overcast
2:45 AM 23.0 °F 11.9 °F 12.2 °F 63% 30.12 in 6.2 mi ENE 11.2 mph - N/A   Overcast
3:15 AM 21.2 °F 8.5 °F 10.4 °F 63% 30.15 in 6.2 mi ENE 13.4 mph - N/A   Overcast
3:45 AM 21.2 °F 8.5 °F 10.4 °F 63% 30.15 in 6.2 mi ENE 13.4 mph - N/A   Overcast
4:15 AM 21.2 °F 8.5 °F 8.6 °F 58% 30.15 in 6.2 mi ENE 13.4 mph - N/A   Overcast
4:45 AM 21.2 °F 8.5 °F 8.6 °F 58% 30.15 in 6.2 mi ENE 13.4 mph - N/A   Overcast
5:15 AM 21.2 °F 8.5 °F 6.8 °F 54% 30.15 in 6.2 mi ENE 13.4 mph - N/A   Overcast
5:45 AM 21.2 °F 8.5 °F 6.8 °F 54% 30.15 in 6.2 mi ENE 13.4 mph - N/A   Overcast
6:45 AM 21.2 °F 8.5 °F 5.0 °F 50% 30.15 in 6.2 mi ENE 13.4 mph - N/A   Overcast
7:15 AM 21.2 °F 8.5 °F 3.2 °F 46% 30.18 in 6.2 mi ENE 13.4 mph - N/A   Overcast
7:45 AM 21.2 °F 8.5 °F 3.2 °F 46% 30.18 in 6.2 mi ENE 13.4 mph - N/A   Overcast
8:15 AM 23.0 °F 10.8 °F 3.2 °F 43% 30.18 in 6.2 mi ENE 13.4 mph - N/A   Mostly Cloudy
8:45 AM - - - N/A% - 3.1 mi ENE 13.4 mph 24.6 mph N/A   Overcast
9:15 AM 24.8 °F 13.1 °F 1.4 °F 36% 30.18 in - ENE 13.4 mph - N/A   Clear
9:45 AM 24.8 °F 13.1 °F 1.4 °F 36% 30.18 in - ENE 13.4 mph - N/A   Clear
10:15 AM 26.6 °F 14.4 °F 3.2 °F 37% 30.18 in - ENE 15.7 mph - N/A   Clear
10:45 AM 26.6 °F 15.3 °F 5.0 °F 40% 30.15 in - NE 13.4 mph - N/A   Clear
11:15 AM 28.4 °F 18.7 °F 5.0 °F 37% 30.15 in - NE 11.2 mph - N/A   Clear
11:45 AM 30.2 °F 19.9 °F 6.8 °F 37% 30.15 in - NE 13.4 mph 24.6 mph N/A   Clear
12:15 PM 30.2 °F 20.9 °F 8.6 °F 40% 30.15 in - NE 11.2 mph - N/A   Clear
12:45 PM 30.2 °F 19.9 °F 5.0 °F 34% 30.15 in - NE 13.4 mph - N/A   Clear
1:15 PM 30.2 °F 19.9 °F 6.8 °F 37% 30.12 in - ENE 13.4 mph - N/A   Clear
1:45 PM 30.2 °F 19.9 °F 5.0 °F 34% 30.12 in - ENE 13.4 mph - N/A   Clear
2:15 PM 30.2 °F 20.9 °F 6.8 °F 37% 30.12 in - NE 11.2 mph - N/A   Clear
2:45 PM - - - N/A% - - ENE 11.2 mph - N/A   Clear
3:15 PM 32.0 °F 22.2 °F 5.0 °F 32% 30.09 in - ENE 13.4 mph - N/A   Clear
3:45 PM 32.0 °F 22.2 °F 5.0 °F 32% 30.09 in - ENE 13.4 mph - N/A   Clear
4:15 PM 32.0 °F 22.2 °F 6.8 °F 35% 30.09 in - ENE 13.4 mph - N/A   Clear
4:45 PM 30.2 °F 19.9 °F 8.6 °F 40% 30.09 in - ENE 13.4 mph - N/A   Clear
5:15 PM 30.2 °F 19.9 °F 8.6 °F 40% 30.09 in - ENE 13.4 mph - N/A   Clear
5:45 PM - - - N/A% - 3.7 mi ENE 11.2 mph - N/A   Unknown
6:15 PM 30.2 °F 20.9 °F 8.6 °F 40% 30.09 in - ENE 11.2 mph - N/A   Clear
6:45 PM 30.2 °F 19.9 °F 8.6 °F 40% 30.09 in - ENE 13.4 mph - N/A   Clear
7:15 PM 30.2 °F 19.9 °F 8.6 °F 40% 30.09 in - NE 13.4 mph - N/A   Clear
7:45 PM 30.2 °F 19.9 °F 10.4 °F 44% 30.09 in - NE 13.4 mph - N/A   Clear
8:15 PM 30.2 °F 19.9 °F 8.6 °F 40% 30.09 in - NE 13.4 mph - N/A   Clear
8:45 PM - - - N/A% - 3.7 mi ENE 11.2 mph - N/A   Unknown
9:15 PM 30.2 °F 19.9 °F 10.4 °F 44% 30.09 in - NE 13.4 mph - N/A   Clear
9:45 PM 30.2 °F 20.9 °F 8.6 °F 40% 30.09 in - NE 11.2 mph - N/A   Clear
10:15 PM 30.2 °F 20.9 °F 8.6 °F 40% 30.09 in - NE 11.2 mph - N/A   Clear
10:45 PM 30.2 °F 20.9 °F 12.2 °F 47% 30.09 in - NE 11.2 mph - N/A   Clear
11:15 PM 30.2 °F 20.9 °F 12.2 °F 47% 30.06 in - NE 11.2 mph - N/A   Clear
11:45 PM - - - N/A% - 1.6 mi North - - N/A   Unknown